Time,TemperatureF,DewpointF,PressureIn,WindDirection,WindDirectionDegrees,WindSpeedMPH,WindSpeedGustMPH,Humidity,HourlyPrecipIn,Conditions,Clouds,dailyrainin,SoftwareType,DateUTC
2013-10-08 00:01:00,58.2,50.0,29.86,NE,40,0.0,-999.0,77,-99.99,,,0.00,Homebuilt-Script,2013-10-08 07:01:00,
2013-10-08 00:11:00,58.0,51.0,29.86,NE,44,1.0,-999.0,80,-99.99,,,0.00,Homebuilt-Script,2013-10-08 07:11:00,
2013-10-08 00:21:00,58.0,52.0,29.86,NE,56,2.0,-999.0,81,-99.99,,,0.00,Homebuilt-Script,2013-10-08 07:21:00,
2013-10-08 00:31:00,58.2,52.0,29.86,ENE,59,1.0,-999.0,81,-99.99,,,0.00,Homebuilt-Script,2013-10-08 07:31:00,
2013-10-08 00:41:00,58.4,51.0,29.86,East,89,1.0,-999.0,79,-99.99,,,0.00,Homebuilt-Script,2013-10-08 07:41:00,
2013-10-08 00:51:00,58.5,50.0,29.85,SE,134,0.0,-999.0,77,-99.99,,,0.00,Homebuilt-Script,2013-10-08 07:51:00,
2013-10-08 01:01:00,58.4,51.0,29.86,SE,128,0.0,-999.0,78,-99.99,,,0.00,Homebuilt-Script,2013-10-08 08:01:00,
2013-10-08 01:11:00,58.4,51.0,29.86,NE,44,1.0,-999.0,79,-99.99,,,0.00,Homebuilt-Script,2013-10-08 08:11:00,
2013-10-08 01:21:00,58.7,53.0,29.86,SE,134,0.0,-999.0,82,-99.99,,,0.00,Homebuilt-Script,2013-10-08 08:21:00,
2013-10-08 01:31:00,59.1,52.0,29.86,SE,134,0.0,-999.0,79,-99.99,,,0.00,Homebuilt-Script,2013-10-08 08:31:00,
2013-10-08 01:41:00,58.9,51.0,29.86,SE,134,0.0,-999.0,76,-99.99,,,0.00,Homebuilt-Script,2013-10-08 08:41:00,
2013-10-08 01:51:00,58.4,51.0,29.86,ENE,72,2.0,-999.0,79,-99.99,,,0.00,Homebuilt-Script,2013-10-08 08:51:00,
2013-10-08 02:01:00,57.8,51.0,29.85,East,80,1.0,-999.0,79,-99.99,,,0.00,Homebuilt-Script,2013-10-08 09:01:00,
2013-10-08 02:11:00,57.6,51.0,29.85,ENE,78,0.0,-999.0,79,-99.99,,,0.00,Homebuilt-Script,2013-10-08 09:11:00,
2013-10-08 02:21:00,57.5,51.0,29.85,ENE,78,0.0,-999.0,78,-99.99,,,0.00,Homebuilt-Script,2013-10-08 09:21:00,
2013-10-08 02:31:00,56.9,50.0,29.84,East,89,0.0,-999.0,79,-99.99,,,0.00,Homebuilt-Script,2013-10-08 09:31:00,
2013-10-08 02:41:00,56.9,50.0,29.84,East,89,0.0,-999.0,78,-99.99,,,0.00,Homebuilt-Script,2013-10-08 09:41:00,
2013-10-08 02:51:00,56.6,50.0,29.83,ENE,78,0.0,-999.0,80,-99.99,,,0.00,Homebuilt-Script,2013-10-08 09:51:00,
2013-10-08 03:01:00,56.4,49.0,29.83,ENE,66,0.0,-999.0,78,-99.99,,,0.00,Homebuilt-Script,2013-10-08 10:01:00,
2013-10-08 03:11:00,56.2,48.0,29.83,East,89,0.0,-999.0,77,-99.99,,,0.00,Homebuilt-Script,2013-10-08 10:11:00,
2013-10-08 03:21:00,56.0,48.0,29.83,East,86,0.0,-999.0,77,-99.99,,,0.00,Homebuilt-Script,2013-10-08 10:21:00,
2013-10-08 03:31:00,55.8,48.0,29.83,East,82,0.0,-999.0,77,-99.99,,,0.00,Homebuilt-Script,2013-10-08 10:31:00,
2013-10-08 03:41:00,55.5,48.0,29.82,NW,313,0.0,-999.0,76,-99.99,,,0.00,Homebuilt-Script,2013-10-08 10:41:00,
2013-10-08 03:51:00,55.3,46.0,29.82,West,268,0.0,-999.0,75,-99.99,,,0.00,Homebuilt-Script,2013-10-08 10:51:00,
2013-10-08 04:01:00,55.0,48.0,29.82,West,274,0.0,-999.0,78,-99.99,,,0.00,Homebuilt-Script,2013-10-08 11:01:00,
2013-10-08 04:11:00,54.6,48.0,29.82,East,86,1.0,-999.0,79,-99.99,,,0.00,Homebuilt-Script,2013-10-08 11:11:00,
2013-10-08 04:21:00,54.2,46.0,29.82,NNW,339,0.0,-999.0,77,-99.99,,,0.00,Homebuilt-Script,2013-10-08 11:21:00,
2013-10-08 04:31:00,54.2,46.0,29.82,NNW,347,0.0,-999.0,76,-99.99,,,0.00,Homebuilt-Script,2013-10-08 11:31:00,
2013-10-08 04:41:00,53.5,47.0,29.82,NNW,347,1.0,-999.0,80,-99.99,,,0.00,Homebuilt-Script,2013-10-08 11:41:00,
2013-10-08 04:51:00,53.2,46.0,29.82,NE,44,0.0,-999.0,78,-99.99,,,0.00,Homebuilt-Script,2013-10-08 11:51:00,
2013-10-08 05:01:00,53.2,46.0,29.82,NNW,336,1.0,-999.0,79,-99.99,,,0.00,Homebuilt-Script,2013-10-08 12:01:00,
2013-10-08 05:11:00,53.2,46.0,29.82,South,179,0.0,-999.0,79,-99.99,,,0.00,Homebuilt-Script,2013-10-08 12:11:00,
2013-10-08 05:21:00,53.2,46.0,29.83,South,179,0.0,-999.0,78,-99.99,,,0.00,Homebuilt-Script,2013-10-08 12:21:00,
2013-10-08 05:31:00,52.8,46.0,29.83,NE,44,1.0,-999.0,79,-99.99,,,0.00,Homebuilt-Script,2013-10-08 12:31:00,
2013-10-08 05:41:00,52.6,46.0,29.83,East,85,0.0,-999.0,78,-99.99,,,0.00,Homebuilt-Script,2013-10-08 12:41:00,
2013-10-08 05:51:00,52.4,45.0,29.83,East,89,0.0,-999.0,78,-99.99,,,0.00,Homebuilt-Script,2013-10-08 12:51:00,
2013-10-08 06:01:00,51.9,44.0,29.83,East,89,0.0,-999.0,77,-99.99,,,0.00,Homebuilt-Script,2013-10-08 13:01:00,
2013-10-08 06:11:00,51.9,45.0,29.83,ENE,78,0.0,-999.0,78,-99.99,,,0.00,Homebuilt-Script,2013-10-08 13:11:00,
2013-10-08 06:21:00,51.9,44.0,29.83,South,179,0.0,-999.0,76,-99.99,,,0.00,Homebuilt-Script,2013-10-08 13:21:00,
2013-10-08 06:31:00,51.7,44.0,29.83,SW,232,0.0,-999.0,77,-99.99,,,0.00,Homebuilt-Script,2013-10-08 13:31:00,
2013-10-08 06:41:00,51.5,44.0,29.83,SW,232,0.0,-999.0,76,-99.99,,,0.00,Homebuilt-Script,2013-10-08 13:41:00,
2013-10-08 06:51:00,51.5,45.0,29.84,SW,232,0.0,-999.0,78,-99.99,,,0.00,Homebuilt-Script,2013-10-08 13:51:00,
2013-10-08 07:01:00,51.9,46.0,29.84,NE,44,1.0,-999.0,82,-99.99,,,0.00,Homebuilt-Script,2013-10-08 14:01:00,
2013-10-08 07:11:00,52.6,47.0,29.83,NE,44,0.0,-999.0,81,-99.99,,,0.00,Homebuilt-Script,2013-10-08 14:11:00,
2013-10-08 07:21:00,53.0,46.0,29.84,ENE,78,0.0,-999.0,79,-99.99,,,0.00,Homebuilt-Script,2013-10-08 14:21:00,
2013-10-08 07:31:00,53.3,46.0,29.84,East,89,1.0,-999.0,80,-99.99,,,0.00,Homebuilt-Script,2013-10-08 14:31:00,
2013-10-08 07:41:00,54.1,47.0,29.84,South,179,0.0,-999.0,79,-99.99,,,0.00,Homebuilt-Script,2013-10-08 14:41:00,
2013-10-08 07:51:00,54.4,46.0,29.84,South,179,0.0,-999.0,77,-99.99,,,0.00,Homebuilt-Script,2013-10-08 14:51:00,
2013-10-08 08:01:00,55.1,46.0,29.84,South,179,0.0,-999.0,75,-99.99,,,0.00,Homebuilt-Script,2013-10-08 15:01:00,
2013-10-08 08:11:00,55.8,47.0,29.84,South,179,0.0,-999.0,74,-99.99,,,0.00,Homebuilt-Script,2013-10-08 15:11:00,
2013-10-08 08:21:00,56.2,47.0,29.85,South,179,0.0,-999.0,74,-99.99,,,0.00,Homebuilt-Script,2013-10-08 15:21:00,
2013-10-08 08:31:00,56.6,48.0,29.85,South,179,0.0,-999.0,74,-99.99,,,0.00,Homebuilt-Script,2013-10-08 15:31:00,
2013-10-08 08:41:00,56.9,48.0,29.85,South,179,0.0,-999.0,75,-99.99,,,0.00,Homebuilt-Script,2013-10-08 15:41:00,
2013-10-08 08:51:00,58.0,49.0,29.85,South,179,0.0,-999.0,73,-99.99,,,0.00,Homebuilt-Script,2013-10-08 15:51:00,
2013-10-08 09:01:00,59.1,50.0,29.86,South,179,0.0,-999.0,73,-99.99,,,0.00,Homebuilt-Script,2013-10-08 16:01:00,
2013-10-08 09:11:00,60.2,51.0,29.86,South,179,0.0,-999.0,73,-99.99,,,0.00,Homebuilt-Script,2013-10-08 16:11:00,
2013-10-08 09:21:00,61.2,52.0,29.85,South,179,2.0,-999.0,73,-99.99,,,0.00,Homebuilt-Script,2013-10-08 16:21:00,
2013-10-08 09:31:00,62.3,52.0,29.86,South,179,3.0,-999.0,71,-99.99,,,0.00,Homebuilt-Script,2013-10-08 16:31:00,
2013-10-08 09:41:00,63.4,53.0,29.85,South,182,1.0,-999.0,70,-99.99,,,0.00,Homebuilt-Script,2013-10-08 16:41:00,
2013-10-08 09:51:00,64.7,54.0,29.86,SW,236,4.0,-999.0,69,-99.99,,,0.00,Homebuilt-Script,2013-10-08 16:51:00,
2013-10-08 10:01:00,65.4,54.0,29.85,West,261,3.0,-999.0,67,-99.99,,,0.00,Homebuilt-Script,2013-10-08 17:01:00,
2013-10-08 10:11:00,66.3,54.0,29.85,SW,224,3.0,-999.0,65,-99.99,,,0.00,Homebuilt-Script,2013-10-08 17:11:00,
2013-10-08 10:21:00,67.2,55.0,29.85,West,268,4.0,-999.0,64,-99.99,,,0.00,Homebuilt-Script,2013-10-08 17:21:00,
2013-10-08 10:31:00,67.7,54.0,29.84,SSW,192,1.0,-999.0,61,-99.99,,,0.00,Homebuilt-Script,2013-10-08 17:31:00,
2013-10-08 10:41:00,68.6,55.0,29.84,East,89,0.0,-999.0,61,-99.99,,,0.00,Homebuilt-Script,2013-10-08 17:41:00,
2013-10-08 10:51:00,69.5,55.0,29.84,WNW,296,3.0,-999.0,57,-99.99,,,0.00,Homebuilt-Script,2013-10-08 17:51:00,
2013-10-08 11:01:00,70.0,55.0,29.83,South,179,1.0,-999.0,57,-99.99,,,0.00,Homebuilt-Script,2013-10-08 18:01:00,
2013-10-08 11:11:00,70.8,55.0,29.83,SSW,200,5.0,-999.0,54,-99.99,,,0.00,Homebuilt-Script,2013-10-08 18:11:00,
2013-10-08 11:21:00,71.5,56.0,29.83,SSW,209,2.0,-999.0,55,-99.99,,,0.00,Homebuilt-Script,2013-10-08 18:21:00,
2013-10-08 11:31:00,72.2,56.0,29.82,SSW,200,7.0,-999.0,55,-99.99,,,0.00,Homebuilt-Script,2013-10-08 18:31:00,
2013-10-08 11:41:00,72.7,56.0,29.83,SW,232,2.0,-999.0,52,-99.99,,,0.00,Homebuilt-Script,2013-10-08 18:41:00,
2013-10-08 11:51:00,73.1,56.0,29.82,SSW,200,8.0,-999.0,52,-99.99,,,0.00,Homebuilt-Script,2013-10-08 18:51:00,
2013-10-08 12:01:00,73.6,58.0,29.82,WSW,246,4.0,-999.0,54,-99.99,,,0.00,Homebuilt-Script,2013-10-08 19:01:00,
2013-10-08 12:11:00,73.8,58.0,29.82,NNW,336,6.0,-999.0,54,-99.99,,,0.00,Homebuilt-Script,2013-10-08 19:11:00,
2013-10-08 12:21:00,74.2,58.0,29.81,South,179,8.0,-999.0,54,-99.99,,,0.00,Homebuilt-Script,2013-10-08 19:21:00,
2013-10-08 12:31:00,74.5,58.0,29.81,SSW,200,3.0,-999.0,54,-99.99,,,0.00,Homebuilt-Script,2013-10-08 19:31:00,
2013-10-08 12:41:00,74.5,58.0,29.81,South,181,6.0,-999.0,53,-99.99,,,0.00,Homebuilt-Script,2013-10-08 19:41:00,
2013-10-08 12:51:00,74.9,59.0,29.81,West,265,5.0,-999.0,54,-99.99,,,0.00,Homebuilt-Script,2013-10-08 19:51:00,
2013-10-08 13:01:00,75.3,58.0,29.80,South,176,7.0,-999.0,52,-99.99,,,0.00,Homebuilt-Script,2013-10-08 20:01:00,
2013-10-08 13:11:00,75.1,59.0,29.80,SW,232,10.0,-999.0,53,-99.99,,,0.00,Homebuilt-Script,2013-10-08 20:11:00,
2013-10-08 13:21:00,75.3,59.0,29.79,SW,220,6.0,-999.0,54,-99.99,,,0.00,Homebuilt-Script,2013-10-08 20:21:00,
2013-10-08 13:31:00,75.3,59.0,29.80,WNW,284,8.0,-999.0,54,-99.99,,,0.00,Homebuilt-Script,2013-10-08 20:31:00,
2013-10-08 13:41:00,75.1,59.0,29.80,WNW,287,4.0,-999.0,54,-99.99,,,0.00,Homebuilt-Script,2013-10-08 20:41:00,
2013-10-08 13:51:00,75.3,59.0,29.79,West,268,6.0,-999.0,53,-99.99,,,0.00,Homebuilt-Script,2013-10-08 20:51:00,
2013-10-08 14:01:00,75.1,58.0,29.78,SSW,203,7.0,-999.0,52,-99.99,,,0.00,Homebuilt-Script,2013-10-08 21:01:00,
2013-10-08 14:11:00,74.9,59.0,29.78,SW,217,13.0,-999.0,53,-99.99,,,0.00,Homebuilt-Script,2013-10-08 21:11:00,
2013-10-08 14:21:00,74.5,58.0,29.78,WSW,240,11.0,-999.0,53,-99.99,,,0.00,Homebuilt-Script,2013-10-08 21:21:00,
2013-10-08 14:31:00,74.4,58.0,29.78,West,275,6.0,-999.0,54,-99.99,,,0.00,Homebuilt-Script,2013-10-08 21:31:00,
2013-10-08 14:41:00,74.2,58.0,29.77,SSW,205,10.0,-999.0,54,-99.99,,,0.00,Homebuilt-Script,2013-10-08 21:41:00,
2013-10-08 14:51:00,74.4,58.0,29.77,SW,224,6.0,-999.0,55,-99.99,,,0.00,Homebuilt-Script,2013-10-08 21:51:00,
2013-10-08 15:01:00,74.2,58.0,29.77,WNW,284,8.0,-999.0,54,-99.99,,,0.00,Homebuilt-Script,2013-10-08 22:01:00,
2013-10-08 15:11:00,74.2,59.0,29.77,SW,224,10.0,-999.0,56,-99.99,,,0.00,Homebuilt-Script,2013-10-08 22:11:00,
2013-10-08 15:21:00,74.2,58.0,29.77,SW,227,6.0,-999.0,55,-99.99,,,0.00,Homebuilt-Script,2013-10-08 22:21:00,
2013-10-08 15:31:00,73.8,59.0,29.77,SW,224,11.0,-999.0,57,-99.99,,,0.00,Homebuilt-Script,2013-10-08 22:31:00,
2013-10-08 15:41:00,73.8,59.0,29.76,SSW,208,4.0,-999.0,58,-99.99,,,0.00,Homebuilt-Script,2013-10-08 22:41:00,
2013-10-08 15:51:00,73.5,59.0,29.76,SW,234,4.0,-999.0,57,-99.99,,,0.00,Homebuilt-Script,2013-10-08 22:51:00,
2013-10-08 16:01:00,72.7,59.0,29.76,SW,216,6.0,-999.0,59,-99.99,,,0.00,Homebuilt-Script,2013-10-08 23:01:00,
2013-10-08 16:11:00,72.4,58.0,29.76,SW,224,5.0,-999.0,59,-99.99,,,0.00,Homebuilt-Script,2013-10-08 23:11:00,
2013-10-08 16:21:00,72.2,58.0,29.76,SSW,209,13.0,-999.0,60,-99.99,,,0.00,Homebuilt-Script,2013-10-08 23:21:00,
2013-10-08 16:31:00,72.0,58.0,29.75,WSW,246,4.0,-999.0,60,-99.99,,,0.00,Homebuilt-Script,2013-10-08 23:31:00,
2013-10-08 16:41:00,71.5,58.0,29.75,SE,134,5.0,-999.0,61,-99.99,,,0.00,Homebuilt-Script,2013-10-08 23:41:00,
2013-10-08 16:51:00,70.9,57.0,29.75,SE,134,2.0,-999.0,61,-99.99,,,0.00,Homebuilt-Script,2013-10-08 23:51:00,
2013-10-08 17:01:00,70.4,57.0,29.75,SW,224,8.0,-999.0,62,-99.99,,,0.00,Homebuilt-Script,2013-10-09 00:01:00,
2013-10-08 17:11:00,69.7,57.0,29.75,WSW,246,6.0,-999.0,62,-99.99,,,0.00,Homebuilt-Script,2013-10-09 00:11:00,
2013-10-08 17:21:00,69.1,57.0,29.76,West,275,7.0,-999.0,64,-99.99,,,0.00,Homebuilt-Script,2013-10-09 00:21:00,
2013-10-08 17:31:00,68.6,57.0,29.76,SW,226,7.0,-999.0,65,-99.99,,,0.00,Homebuilt-Script,2013-10-09 00:31:00,
2013-10-08 17:41:00,67.9,56.0,29.76,SW,230,4.0,-999.0,65,-99.99,,,0.00,Homebuilt-Script,2013-10-09 00:41:00,
2013-10-08 17:51:00,67.5,56.0,29.75,South,185,5.0,-999.0,65,-99.99,,,0.00,Homebuilt-Script,2013-10-09 00:51:00,
2013-10-08 18:01:00,67.2,56.0,29.76,SW,219,4.0,-999.0,67,-99.99,,,0.00,Homebuilt-Script,2013-10-09 01:01:00,
2013-10-08 18:11:00,66.8,56.0,29.76,South,184,7.0,-999.0,67,-99.99,,,0.00,Homebuilt-Script,2013-10-09 01:11:00,
2013-10-08 18:21:00,66.5,55.0,29.76,SSW,212,3.0,-999.0,67,-99.99,,,0.00,Homebuilt-Script,2013-10-09 01:21:00,
2013-10-08 18:31:00,66.3,55.0,29.76,SW,217,2.0,-999.0,67,-99.99,,,0.00,Homebuilt-Script,2013-10-09 01:31:00,
2013-10-08 18:41:00,66.1,55.0,29.76,West,263,2.0,-999.0,68,-99.99,,,0.00,Homebuilt-Script,2013-10-09 01:41:00,
2013-10-08 18:51:00,66.1,55.0,29.76,SW,230,4.0,-999.0,68,-99.99,,,0.00,Homebuilt-Script,2013-10-09 01:51:00,
2013-10-08 19:01:00,65.9,55.0,29.76,SW,224,1.0,-999.0,67,-99.99,,,0.00,Homebuilt-Script,2013-10-09 02:01:00,
2013-10-08 19:11:00,65.9,55.0,29.77,SW,230,2.0,-999.0,68,-99.99,,,0.00,Homebuilt-Script,2013-10-09 02:11:00,
2013-10-08 19:21:00,65.6,55.0,29.76,WNW,291,3.0,-999.0,69,-99.99,,,0.00,Homebuilt-Script,2013-10-09 02:21:00,
2013-10-08 19:31:00,65.6,55.0,29.77,SW,232,5.0,-999.0,69,-99.99,,,0.00,Homebuilt-Script,2013-10-09 02:31:00,
2013-10-08 19:41:00,65.4,54.0,29.77,South,191,2.0,-999.0,69,-99.99,,,0.00,Homebuilt-Script,2013-10-09 02:41:00,
2013-10-08 19:51:00,65.2,54.0,29.77,West,278,1.0,-999.0,69,-99.99,,,0.00,Homebuilt-Script,2013-10-09 02:51:00,
2013-10-08 20:01:00,65.0,54.0,29.77,WSW,251,1.0,-999.0,69,-99.99,,,0.00,Homebuilt-Script,2013-10-09 03:01:00,
2013-10-08 20:11:00,64.8,54.0,29.77,WSW,251,0.0,-999.0,69,-99.99,,,0.00,Homebuilt-Script,2013-10-09 03:11:00,
2013-10-08 20:21:00,64.8,55.0,29.77,ENE,78,0.0,-999.0,70,-99.99,,,0.00,Homebuilt-Script,2013-10-09 03:21:00,
2013-10-08 20:31:00,64.5,54.0,29.77,East,83,0.0,-999.0,71,-99.99,,,0.00,Homebuilt-Script,2013-10-09 03:31:00,
2013-10-08 20:41:00,64.5,54.0,29.77,East,83,0.0,-999.0,70,-99.99,,,0.00,Homebuilt-Script,2013-10-09 03:41:00,
2013-10-08 20:51:00,64.3,54.0,29.77,ENE,66,1.0,-999.0,71,-99.99,,,0.00,Homebuilt-Script,2013-10-09 03:51:00,
2013-10-08 21:01:00,64.5,53.0,29.76,South,179,1.0,-999.0,69,-99.99,,,0.00,Homebuilt-Script,2013-10-09 04:01:00,
2013-10-08 21:11:00,64.7,54.0,29.76,SW,224,1.0,-999.0,69,-99.99,,,0.00,Homebuilt-Script,2013-10-09 04:11:00,
2013-10-08 21:21:00,64.5,53.0,29.77,SW,234,3.0,-999.0,69,-99.99,,,0.00,Homebuilt-Script,2013-10-09 04:21:00,
2013-10-08 21:31:00,64.1,54.0,29.76,SW,224,1.0,-999.0,70,-99.99,,,0.00,Homebuilt-Script,2013-10-09 04:31:00,
2013-10-08 21:41:00,64.1,54.0,29.76,SE,134,0.0,-999.0,70,-99.99,,,0.00,Homebuilt-Script,2013-10-09 04:41:00,
2013-10-08 21:51:00,63.9,54.0,29.75,SE,134,0.0,-999.0,70,-99.99,,,0.00,Homebuilt-Script,2013-10-09 04:51:00,
2013-10-08 22:01:00,64.1,54.0,29.75,SE,134,1.0,-999.0,70,-99.99,,,0.00,Homebuilt-Script,2013-10-09 05:01:00,
2013-10-08 22:11:00,64.1,54.0,29.76,SW,226,2.0,-999.0,70,-99.99,,,0.00,Homebuilt-Script,2013-10-09 05:11:00,
2013-10-08 22:21:00,63.9,54.0,29.76,West,272,2.0,-999.0,70,-99.99,,,0.00,Homebuilt-Script,2013-10-09 05:21:00,
2013-10-08 22:31:00,63.6,54.0,29.76,SW,219,3.0,-999.0,70,-99.99,,,0.00,Homebuilt-Script,2013-10-09 05:31:00,
2013-10-08 22:41:00,63.6,54.0,29.76,SW,229,2.0,-999.0,70,-99.99,,,0.00,Homebuilt-Script,2013-10-09 05:41:00,
2013-10-08 22:51:00,63.6,54.0,29.76,SW,229,1.0,-999.0,70,-99.99,,,0.00,Homebuilt-Script,2013-10-09 05:51:00,
2013-10-08 23:01:00,63.4,53.0,29.76,SW,226,3.0,-999.0,70,-99.99,,,0.00,Homebuilt-Script,2013-10-09 06:01:00,
2013-10-08 23:11:00,63.4,53.0,29.76,SW,220,3.0,-999.0,70,-99.99,,,0.00,Homebuilt-Script,2013-10-09 06:11:00,
2013-10-08 23:21:00,63.0,53.0,29.75,West,280,1.0,-999.0,71,-99.99,,,0.00,Homebuilt-Script,2013-10-09 06:21:00,
2013-10-08 23:31:00,63.0,53.0,29.76,SW,227,1.0,-999.0,70,-99.99,,,0.00,Homebuilt-Script,2013-10-09 06:31:00,
2013-10-08 23:41:00,63.0,53.0,29.76,SW,227,2.0,-999.0,70,-99.99,,,0.00,Homebuilt-Script,2013-10-09 06:41:00,
2013-10-08 23:51:00,63.2,53.0,29.76,South,179,0.0,-999.0,70,-99.99,,,0.00,Homebuilt-Script,2013-10-09 06:51:00,